Temp
-7 -7 -7 -8 -8 -8 -8 -8 -8 -8 -8 -8 -8 -8 -9 -9 -9 -8 -8 -8 -8 -8 -8 -8 -8 -8 -8 -9 -9 -9 -8 -7 -7 -8 -8 -8 -7 -7 -7 -7 -7 -8 -7
-8 -8 -8 -8 -8 -8 -8 -9 -9 -8 -8 -8 -8 -8 -8 -8 -8 -8 -9 -8 -8 -8 -8 -8 -8 -8 -8 -8 -8 -8 -8 -8 -7 -7 -9 -8 -8 -7 -7 -6 -7 -8 -7
-8 -8 -8 -8 -8 -9 -9 -9 -9 -9 -9 -8 -8 -8 -8 -8 -9 -9 -9 -8 -9 -8 -9 -8 -8 -8 -8 -8 -8 -7 -7 -7 -7 -7 -7 -9 -8 -8 -6 -6 -7 -7 -7
-8 -8 -9 -9 -9 -9 -9 -9 -9 -9 -9 -8 -8 -9 -9 -10 -10 -10 -9 -9 -9 -9 -9 -9 -8 -8 -8 -7 -7 -7 -7 -7 -7 -7 -6 -8 -8 -8 -7 -6 -7 -7 -8
-9 -9 -10 -10 -10 -10 -9 -9 -9 -9 -9 -9 -8 -9 -10 -10 -10 -11 -10 -9 -8 -9 -9 -9 -9 -8 -8 -7 -7 -7 -7 -7 -6 -7 -6 -7 -7 -8 -7 -7 -7 -7 -8
-10 -10 -10 -10 -10 -10 -10 -9 -9 -9 -9 -9 -9 -9 -10 -9 -10 -10 -10 -9 -8 -8 -9 -9 -9 -8 -8 -7 -7 -6 -7 -7 -6 -6 -8 -7 -7 -8 -7 -7 -6 -7 -8
-11 -10 -10 -10 -10 -10 -9 -9 -9 -10 -9 -10 -10 -9 -9 -9 -9 -9 -10 -10 -9 -8 -8 -8 -8 -9 -8 -7 -7 -7 -7 -7 -7 -6 -7 -6 -6 -8 -8 -7 -6 -7 -8
-11 -10 -10 -10 -10 -10 -10 -10 -10 -10 -10 -10 -9 -9 -9 -9 -9 -9 -10 -10 -10 -9 -9 -9 -9 -8 -8 -8 -9 -8 -8 -7 -8 -7 -5 -6 -7 -8 -8 -7 -6 -7 -8
-11 -10 -10 -10 -11 -11 -10 -10 -11 -11 -10 -10 -9 -10 -10 -10 -10 -10 -10 -10 -10 -10 -10 -10 -10 -10 -10 -10 -9 -9 -8 -8 -9 -7 -6 -6 -7 -7 -8 -6 -6 -7 -8
-11 -10 -11 -11 -11 -11 -11 -11 -12 -11 -11 -10 -10 -10 -10 -10 -10 -10 -10 -11 -11 -11 -11 -11 -11 -10 -10 -10 -10 -10 -10 -10 -9 -8 -6 -6 -8 -7 -7 -7 -7 -7 -8
-11 -11 -11 -11 -11 -12 -12 -12 -12 -11 -11 -11 -11 -10 -10 -10 -10 -10 -10 -10 -11 -11 -11 -11 -11 -11 -11 -10 -10 -11 -11 -10 -9 -8 -7 -7 -8 -8 -8 -8 -8 -7 -8
-11 -12 -12 -12 -12 -13 -13 -12 -12 -12 -12 -12 -11 -10 -10 -10 -9 -9 -10 -10 -10 -10 -10 -10 -10 -10 -10 -10 -10 -10 -10 -10 -8 -8 -8 -8 -9 -8 -8 -8 -8 -7 -8
-12 -12 -12 -12 -13 -12 -13 -12 -13 -13 -13 -12 -11 -10 -10 -10 -10 -10 -9 -10 -10 -10 -10 -10 -10 -10 -10 -10 -10 -10 -10 -9 -9 -9 -8 -9 -9 -9 -9 -9 -9 -8 -8
-12 -12 -12 -12 -13 -13 -13 -12 -13 -13 -12 -12 -12 -11 -10 -9 -10 -10 -9 -10 -10 -9 -9 -9 -10 -10 -10 -10 -10 -10 -10 -10 -10 -9 -9 -9 -9 -9 -9 -9 -9 -9 -8
-13 -13 -13 -13 -13 -13 -13 -13 -13 -13 -13 -13 -12 -12 -10 -10 -10 -9 -10 -9 -10 -10 -9 -10 -10 -10 -10 -10 -10 -10 -10 -10 -10 -10 -9 -9 -9 -8 -8 -8 -8 -8 -8
-14 -14 -13 -14 -14 -13 -13 -14 -13 -13 -13 -13 -13 -13 -12 -11 -10 -10 -10 -10 -10 -10 -10 -10 -10 -11 -11 -11 -11 -10 -10 -10 -10 -10 -10 -10 -9 -8 -8 -8 -8 -9 -9
-14 -14 -13 -14 -14 -14 -14 -14 -14 -13 -13 -13 -13 -14 -13 -13 -12 -11 -10 -10 -11 -10 -11 -11 -11 -11 -11 -11 -10 -10 -10 -9 -10 -9 -10 -9 -9 -9 -10 -9 -9 -9 -9
-14 -14 -13 -14 -14 -14 -15 -16 -15 -14 -13 -13 -13 -13 -13 -14 -14 -13 -13 -13 -13 -12 -12 -12 -12 -12 -12 -12 -11 -11 -12 -11 -10 -10 -9 -9 -10 -10 -10 -10 -9 -9 -9
-14 -14 -14 -14 -14 -15 -15 -16 -15 -14 -14 -14 -14 -14 -14 -13 -13 -13 -13 -13 -13 -12 -12 -12 -12 -12 -12 -12 -12 -11 -11 -11 -11 -12 -12 -11 -10 -11 -11 -12 -12 -11 -10
-15 -15 -15 -15 -15 -15 -16 -16 -15 -14 -14 -14 -14 -14 -14 -14 -13 -13 -13 -13 -13 -13 -13 -12 -12 -12 -12 -12 -12 -12 -12 -12 -12 -12 -12 -12 -12 -12 -12 -13 -13 -13 -13
-15 -15 -15 -15 -15 -15 -15 -16 -15 -15 -14 -14 -14 -13 -13 -13 -13 -13 -13 -13 -13 -13 -12 -12 -12 -12 -12 -12 -12 -12 -12 -12 -12 -12 -12 -12 -12 -12 -12 -12 -12 -12 -12
-15 -15 -15 -15 -15 -15 -15 -15 -15 -15 -15 -14 -14 -14 -14 -14 -14 -13 -13 -13 -13 -13 -13 -13 -13 -13 -13 -13 -13 -13 -13 -13 -13 -13 -13 -13 -13 -12 -13 -12 -12 -12 -12
-15 -15 -15 -15 -15 -15 -15 -15 -15 -15 -15 -15 -14 -14 -14 -14 -14 -14 -14 -14 -14 -14 -14 -14 -14 -14 -13 -13 -13 -13 -13 -13 -13 -13 -13 -13 -13 -13 -13 -13 -13 -13 -13
-15 -15 -15 -15 -15 -15 -16 -15 -15 -15 -15 -15 -15 -15 -14 -14 -14 -14 -14 -14 -14 -14 -14 -14 -14 -14 -14 -14 -14 -14 -14 -13 -13 -14 -14 -13 -13 -13 -13 -14 -14 -14 -14
-15 -15 -15 -15 -15 -16 -15 -15 -15 -15 -15 -15 -15 -15 -15 -14 -14 -14 -14 -14 -14 -14 -14 -14 -14 -14 -14 -14 -14 -14 -14 -14 -14 -14 -14 -15 -15 -15 -15 -15 -15 -15 -15
-15 -15 -15 -15 -16 -16 -15 -15 -15 -15 -15 -15 -15 -15 -15 -15 -15 -15 -15 -15 -15 -15 -15 -15 -15 -15 -15 -15 -15 -15 -15 -15 -15 -15 -15 -15 -15 -15 -15 -15 -15 -15 -15
Height
5871 5867 5864 5859 5855 5851 5846 5842 5837 5833 5828 5824 5821 5819 5817 5816 5813 5811 5814 5816 5815 5818 5819 5822 5826 5831 5834 5836 5840 5841 5845 5849 5852 5861 5855 5855 5856 5857 5858 5860 5862 5865 5867
5861 5857 5852 5848 5843 5838 5832 5828 5823 5819 5815 5811 5807 5803 5799 5797 5797 5795 5795 5796 5798 5801 5805 5806 5812 5816 5820 5824 5829 5833 5834 5838 5842 5848 5848 5847 5849 5848 5850 5854 5857 5858 5860
5852 5847 5842 5836 5830 5825 5820 5815 5811 5805 5800 5795 5791 5786 5781 5776 5774 5775 5775 5777 5779 5783 5788 5792 5799 5801 5807 5811 5817 5821 5825 5827 5826 5833 5840 5840 5840 5840 5842 5846 5850 5850 5852
5842 5836 5830 5825 5819 5813 5808 5803 5796 5790 5785 5779 5773 5766 5760 5756 5752 5752 5754 5756 5761 5766 5772 5776 5783 5787 5794 5798 5803 5808 5810 5814 5817 5819 5824 5829 5829 5831 5833 5837 5842 5841 5843
5831 5826 5820 5814 5807 5801 5795 5789 5782 5775 5767 5760 5753 5747 5740 5736 5734 5732 5733 5736 5742 5749 5756 5760 5767 5772 5778 5783 5789 5795 5797 5802 5804 5805 5808 5815 5819 5822 5824 5826 5831 5832 5837
5821 5816 5810 5803 5796 5790 5782 5774 5767 5760 5750 5741 5735 5729 5723 5717 5711 5710 5713 5718 5726 5734 5741 5746 5751 5758 5763 5768 5775 5780 5782 5787 5787 5791 5796 5805 5810 5812 5810 5814 5821 5824 5829
5810 5804 5798 5792 5785 5776 5768 5762 5753 5744 5735 5727 5720 5713 5705 5697 5695 5695 5699 5704 5711 5720 5726 5732 5737 5742 5748 5755 5759 5764 5767 5772 5776 5781 5790 5794 5798 5800 5799 5804 5809 5815 5820
5798 5793 5786 5780 5772 5765 5758 5749 5741 5732 5723 5714 5707 5699 5693 5689 5688 5688 5690 5695 5701 5707 5713 5718 5726 5731 5736 5742 5745 5750 5755 5758 5763 5769 5775 5779 5785 5786 5788 5792 5798 5805 5809
5787 5781 5775 5770 5762 5755 5747 5738 5729 5723 5715 5706 5696 5692 5689 5686 5685 5684 5686 5689 5693 5698 5703 5708 5715 5721 5727 5731 5734 5737 5741 5745 5748 5756 5759 5768 5771 5775 5778 5782 5789 5795 5800
5778 5773 5765 5758 5752 5744 5736 5729 5720 5714 5706 5699 5691 5688 5684 5682 5681 5679 5680 5682 5685 5689 5694 5699 5705 5712 5715 5718 5722 5727 5731 5732 5735 5740 5746 5751 5756 5761 5766 5772 5778 5786 5791
5770 5764 5756 5749 5742 5735 5726 5720 5713 5707 5700 5690 5687 5683 5680 5679 5678 5676 5678 5680 5682 5685 5689 5694 5698 5702 5706 5710 5712 5716 5719 5722 5727 5729 5734 5738 5743 5749 5756 5762 5768 5774 5780
5760 5754 5747 5741 5733 5727 5718 5712 5707 5703 5696 5686 5680 5676 5676 5676 5676 5675 5677 5677 5679 5682 5686 5688 5691 5694 5698 5700 5704 5708 5712 5715 5718 5721 5725 5729 5734 5741 5745 5750 5756 5762 5768
5751 5746 5739 5730 5725 5719 5712 5704 5702 5698 5692 5685 5679 5672 5673 5675 5676 5675 5674 5675 5678 5679 5682 5683 5686 5689 5693 5695 5698 5701 5704 5708 5710 5713 5718 5722 5727 5732 5736 5739 5744 5750 5755
5743 5738 5731 5725 5718 5712 5705 5700 5698 5695 5690 5684 5677 5672 5670 5672 5672 5673 5668 5675 5677 5675 5676 5679 5683 5685 5687 5690 5692 5695 5698 5701 5705 5708 5711 5715 5719 5722 5725 5729 5732 5736 5742
5736 5731 5725 5719 5712 5707 5700 5696 5695 5692 5688 5683 5676 5671 5667 5670 5669 5666 5671 5667 5668 5674 5672 5678 5681 5683 5685 5687 5688 5690 5694 5696 5698 5700 5702 5706 5709 5712 5713 5716 5720 5724 5728
5729 5725 5720 5714 5707 5700 5695 5692 5691 5690 5687 5681 5676 5672 5668 5667 5666 5665 5664 5665 5670 5672 5674 5677 5679 5681 5683 5684 5686 5686 5687 5689 5690 5693 5694 5697 5699 5701 5704 5705 5707 5711 5713
5721 5718 5714 5709 5703 5696 5690 5688 5687 5687 5686 5682 5677 5673 5672 5670 5669 5665 5664 5665 5670 5672 5674 5677 5678 5679 5681 5681 5681 5680 5681 5677 5684 5682 5689 5689 5692 5691 5695 5696 5697 5698 5700
5712 5710 5708 5704 5699 5693 5687 5686 5685 5684 5683 5681 5680 5676 5673 5672 5671 5669 5669 5667 5671 5674 5675 5676 5677 5678 5678 5679 5679 5678 5677 5674 5673 5675 5679 5682 5684 5687 5687 5688 5689 5692 5691
5702 5700 5699 5698 5695 5692 5688 5686 5685 5683 5682 5680 5679 5678 5677 5675 5674 5673 5674 5673 5673 5675 5676 5676 5676 5677 5676 5677 5678 5676 5675 5675 5674 5672 5673 5676 5677 5678 5678 5675 5678 5680 5680
5694 5693 5692 5692 5691 5690 5687 5686 5683 5682 5680 5679 5678 5679 5678 5677 5677 5676 5676 5676 5675 5676 5676 5674 5674 5673 5672 5673 5675 5674 5674 5674 5674 5673 5673 5673 5673 5674 5674 5674 5674 5676 5675
5688 5686 5685 5686 5686 5686 5684 5683 5683 5682 5680 5679 5678 5676 5676 5676 5675 5675 5675 5674 5673 5672 5672 5672 5671 5670 5670 5669 5670 5668 5668 5668 5668 5668 5668 5668 5668 5668 5667 5667 5667 5668 5669
5682 5681 5681 5681 5681 5681 5680 5680 5679 5678 5677 5676 5676 5675 5674 5673 5673 5673 5671 5671 5671 5670 5669 5667 5667 5666 5665 5665 5664 5663 5662 5661 5661 5660 5660 5660 5659 5659 5659 5658 5658 5657 5656
5675 5676 5677 5676 5676 5677 5677 5677 5676 5675 5674 5673 5673 5672 5671 5669 5668 5667 5665 5665 5663 5662 5661 5661 5660 5659 5658 5657 5656 5655 5654 5653 5652 5651 5650 5648 5647 5647 5646 5645 5645 5643 5642
5671 5671 5672 5672 5672 5672 5672 5672 5672 5671 5670 5668 5667 5667 5665 5664 5662 5661 5660 5659 5657 5656 5656 5654 5653 5652 5650 5648 5647 5645 5643 5642 5641 5639 5638 5637 5635 5633 5631 5629 5628 5627 5627
5666 5666 5667 5667 5668 5668 5668 5668 5667 5666 5665 5665 5664 5663 5661 5660 5659 5658 5656 5653 5651 5650 5647 5645 5643 5641 5639 5637 5635 5633 5631 5629 5627 5625 5622 5621 5619 5617 5616 5614 5613 5611 5610
5660 5661 5661 5661 5660 5663 5663 5663 5662 5661 5660 5659 5658 5657 5656 5655 5654 5651 5649 5646 5643 5640 5638 5635 5633 5631 5629 5627 5624 5621 5618 5615 5613 5610 5607 5604 5601 5598 5596 5593 5591 5589 5587
Wind_Speed
39 40 41 42 45 46 46 48 48 48 49 49 48 49 50 52 55 57 57 56 55 52 52 52 51 49 49 50 51 47 43 42 38 34 40 39 37 33 32 31 28 28 29
42 44 45 47 48 48 50 49 48 47 47 48 50 51 52 53 51 55 58 56 59 56 54 55 53 50 51 53 52 41 39 51 46 37 41 40 38 37 34 30 28 28 30
45 47 49 50 51 52 50 50 49 48 51 50 54 57 57 59 57 54 58 59 56 58 55 54 53 51 50 48 47 43 42 49 45 44 40 44 41 42 36 33 30 30 31
47 48 51 52 53 53 54 52 50 52 55 56 60 56 55 54 58 55 56 58 58 55 55 54 52 52 50 49 47 46 46 44 44 49 43 43 41 44 40 36 34 36 35
51 51 51 52 53 54 53 48 52 57 60 63 57 50 45 44 49 50 51 56 56 54 53 54 52 52 50 50 48 47 48 48 45 48 50 54 45 46 40 39 38 39 37
52 51 50 50 52 52 51 55 58 62 62 58 50 46 45 51 52 44 49 50 53 51 50 52 53 52 51 50 50 49 51 46 42 47 41 47 49 44 43 41 41 41 38
51 52 50 49 49 51 55 57 61 57 56 48 48 43 44 40 35 33 40 41 44 48 48 49 50 50 51 50 48 50 49 42 45 44 48 50 52 44 46 43 43 42 41
53 46 47 47 50 54 57 60 58 56 50 47 41 32 28 25 23 24 28 33 37 40 43 47 48 48 47 47 46 48 47 47 44 39 39 38 53 49 49 47 44 43 44
48 48 46 48 54 57 60 58 51 49 39 38 32 30 24 19 19 22 22 24 27 30 36 40 39 40 38 41 45 45 46 48 43 44 36 38 45 53 53 49 44 43 43
46 46 49 52 56 56 50 48 46 43 37 37 26 24 17 16 16 18 21 26 25 21 25 32 36 37 39 41 39 39 42 44 46 46 38 42 47 57 56 50 48 46 45
44 45 49 48 49 45 46 46 43 34 37 40 26 26 14 14 13 16 13 12 16 18 22 26 27 27 30 33 34 35 37 41 47 45 48 53 53 56 55 52 51 50 51
38 45 47 50 42 41 39 45 34 29 33 36 30 17 17 13 11 10 11 13 18 22 21 24 23 26 28 31 31 32 37 34 38 38 36 38 49 56 54 52 54 55 55
39 44 47 42 36 38 40 31 30 27 28 27 22 17 14 13 13 13 15 14 9 9 17 19 20 21 25 29 31 35 34 29 28 28 36 35 45 51 55 56 56 57 58
38 39 35 34 37 37 26 27 28 30 23 22 7 9 12 8 9 13 10 12 9 6 6 6 19 19 30 28 31 29 27 28 30 29 31 34 42 48 56 61 66 61 60
35 36 36 37 39 36 22 18 23 22 19 21 10 8 14 13 12 19 19 26 25 11 7 1 3 6 11 15 19 27 30 28 31 34 32 33 38 43 41 44 51 59 64
32 36 37 34 37 36 23 18 20 18 16 17 18 16 15 14 20 22 25 18 18 19 12 4 7 7 8 11 13 18 24 26 28 26 29 29 26 26 27 35 39 37 35
34 33 33 30 32 29 20 18 21 17 11 12 13 19 16 16 12 8 14 8 8 8 8 10 9 7 7 9 14 18 11 26 31 35 34 23 23 36 20 25 27 36 37
35 32 31 24 26 25 15 8 15 9 8 11 7 8 11 15 16 17 14 13 12 10 8 8 6 6 5 7 8 12 15 24 25 19 30 30 32 37 47 45 38 39 42
30 26 22 19 20 18 12 12 10 7 6 6 7 7 7 7 6 6 6 7 7 8 8 7 8 9 8 10 11 11 12 13 15 16 20 15 19 16 19 15 19 28 37
22 20 17 17 16 16 12 11 13 10 8 6 6 4 2 3 3 3 3 4 4 6 8 8 9 12 12 13 14 13 13 14 15 14 15 15 15 18 20 19 19 21 20
19 19 21 17 14 13 13 13 12 12 11 10 9 9 9 8 7 7 8 9 9 11 13 14 14 14 16 17 20 20 20 21 22 23 23 23 23 24 24 25 27 28 30
20 18 15 13 13 12 12 12 12 11 12 12 13 13 14 14 14 14 15 15 16 17 19 19 20 21 22 23 25 26 26 26 28 29 30 30 31 31 33 34 36 36 36
21 19 17 15 14 14 13 13 13 13 12 13 14 16 17 18 20 21 21 21 21 22 23 24 25 26 27 29 29 31 31 33 34 36 37 37 38 39 38 39 40 42 43
17 20 17 16 17 16 15 15 15 14 15 17 19 20 20 20 21 22 23 24 25 26 26 27 28 29 30 32 34 35 37 38 39 40 41 42 43 44 46 46 47 47 48
17 16 19 19 17 15 16 17 18 19 19 18 18 18 20 21 22 23 24 26 28 30 32 34 35 36 37 37 39 40 42 43 45 46 47 48 49 50 50 51 52 53 54
15 15 17 21 15 16 19 19 19 17 17 17 18 19 20 21 23 25 27 29 31 32 32 33 34 35 36 38 40 41 42 44 44 45 46 48 49 51 52 53 55 56 57
Wind_Direction
302 303 305 307 307 303 300 298 297 296 294 291 289 286 280 274 271 269 265 263 262 261 261 259 258 256 258 259 259 254 257 256 258 255 261 259 259 259 259 253 251 251 257
307 307 308 306 305 303 301 300 298 295 294 293 291 289 285 280 272 269 266 260 258 258 256 257 258 258 257 258 256 278 274 260 260 249 256 259 259 258 258 258 249 249 254
308 307 306 306 305 303 301 300 299 294 295 293 293 291 285 278 274 268 261 260 255 253 253 254 255 257 257 261 263 265 262 267 266 249 249 255 254 257 256 258 252 251 250
308 307 307 305 304 303 303 301 295 296 298 297 298 292 286 278 274 268 259 253 254 252 249 251 251 255 256 257 260 263 266 268 262 271 240 243 245 252 251 255 252 249 246
308 307 306 303 302 302 304 298 296 301 300 301 298 293 281 278 282 268 258 251 248 248 247 248 247 250 252 255 259 261 261 264 257 259 265 247 242 245 249 251 248 249 248
305 306 303 301 300 301 303 301 302 304 304 301 294 289 279 285 284 268 253 247 243 244 244 245 247 248 251 254 258 260 263 264 253 257 241 237 239 238 243 247 247 247 246
305 304 303 301 301 304 304 305 308 308 307 300 299 295 293 284 275 263 250 242 242 240 241 244 244 246 248 252 256 258 260 256 247 237 234 243 235 234 240 244 246 243 243
305 305 303 305 305 305 308 310 310 310 306 309 307 313 301 280 273 264 248 239 238 239 237 239 240 244 247 247 248 249 250 250 245 240 248 250 233 237 239 241 245 241 240
309 307 307 306 308 310 309 309 309 310 305 314 319 312 296 270 267 266 257 244 240 241 239 238 236 236 243 244 247 249 247 249 238 229 226 241 232 235 236 240 243 241 237
306 305 306 308 310 308 308 314 307 308 306 319 308 295 284 265 267 261 245 239 236 229 228 224 227 235 240 243 244 245 246 246 231 220 228 232 228 228 232 234 239 241 238
302 306 308 313 312 308 312 319 308 307 319 320 317 290 294 269 280 277 275 246 232 230 228 230 230 237 242 240 239 238 238 245 232 230 230 235 232 223 229 234 239 241 243
305 309 310 312 307 314 310 311 307 308 322 320 318 282 274 259 258 276 260 244 238 239 234 232 234 235 234 237 235 231 238 246 236 232 237 234 226 224 230 234 239 242 245
309 311 313 308 311 318 315 309 304 317 326 326 305 281 275 270 254 242 206 249 264 273 242 237 233 235 238 237 236 240 231 234 240 239 233 233 229 232 238 240 239 242 245
310 319 315 310 314 320 311 313 309 318 323 337 274 226 251 239 266 253 220 229 200 203 222 226 239 239 244 241 244 243 229 235 230 230 235 235 239 241 243 247 247 244 245
308 318 315 312 315 321 310 290 305 319 320 338 12 66 199 228 204 197 186 160 183 171 189 184 234 239 238 243 246 247 239 241 244 243 242 237 240 244 244 247 249 249 249
305 310 309 309 313 319 315 281 292 308 317 325 350 18 52 175 170 145 143 149 170 155 145 208 237 254 267 264 260 270 257 245 251 245 248 254 248 241 248 253 250 252 254
293 305 301 304 306 317 307 281 279 289 310 322 327 353 16 23 38 107 171 183 128 170 214 239 256 264 267 284 290 285 287 181 214 246 230 225 230 219 256 237 250 240 210
289 290 289 296 300 321 300 333 293 255 320 325 349 343 352 8 2 8 18 30 20 360 354 352 302 265 280 301 293 297 302 287 284 196 201 224 233 244 247 243 250 233 235
287 275 270 285 294 306 324 345 321 316 314 324 347 1 17 15 22 10 5 358 352 329 317 313 311 302 301 300 292 291 295 301 308 317 318 287 264 264 253 244 252 248 237
276 263 274 280 285 289 291 317 322 315 314 325 325 321 333 345 350 351 330 317 307 300 304 313 309 309 314 307 300 300 295 291 291 291 289 287 280 284 285 285 285 288 283
271 263 275 270 275 280 278 286 285 299 312 314 314 312 316 318 320 318 306 306 302 300 301 300 299 299 296 296 296 298 297 295 292 290 289 286 282 278 276 275 272 270 267
258 266 265 270 271 267 262 265 275 290 298 305 311 315 316 317 314 309 313 313 310 308 306 306 303 300 297 295 295 295 295 293 291 289 286 285 282 278 277 276 275 273 273
249 259 276 263 272 267 267 266 267 278 292 296 299 299 300 302 304 306 306 305 304 304 305 304 303 302 301 300 297 295 294 292 290 290 289 288 286 284 281 278 276 276 275
260 266 269 261 260 267 271 270 277 282 283 288 292 295 301 303 305 306 306 306 306 303 301 299 298 296 296 296 296 296 294 292 291 289 287 285 284 283 283 282 280 279 277
267 269 265 267 268 263 265 268 273 280 285 289 290 292 296 298 298 298 301 302 302 301 300 301 301 300 298 296 294 292 290 289 288 287 285 284 282 281 279 277 276 274 273
274 272 270 266 257 263 267 270 275 278 283 288 291 292 295 296 298 299 299 298 298 299 299 298 297 295 294 294 293 294 295 294 292 291 289 287 286 285 284 282 281 279 277